Location: Newark
(50.4348°N, 30.5552°E)
Time: 01:10:51
(UTC+00:00)

Altair - Pass Details

Date: 21 January 2020
Orbit: 1502 x 1682 km, 47.2° (Epoch: 19 February)

Event Time Altitude Azimuth Distance (km) Brightness Sun altitude
Rises 11:36:38 0° 276° (W) 4,937 10.4 17.0°
Reaches altitude 10° 11:39:50 10° 274° (W) 3,947 10.0 16.8°
Maximum altitude 11:49:53 70° 194° (SSW) 1,755 8.5 16.2°
Drops below altitude 10° 11:59:42 10° 114° (ESE) 3,855 9.6 15.5°
Sets 12:02:47 0° 112° (ESE) 4,817 10.0 15.3°
